CAPE
802 749 328 52 114 152 84 72 200 354 861 1722 1954 1959 2034 2212 2090 1639 1623 1536 1580 1438 1175 1240 2262 2491 2613 2653 2007 1194 1201 1055 573
933 812 633 137 105 146 108 86 209 339 651 1626 1892 1796 2101 2338 2383 1990 1396 1556 1755 1699 1641 1647 2510 2570 2442 2729 2606 2079 1811 1315 459
1032 900 795 525 352 144 208 186 221 235 617 1116 1661 1533 1898 2085 2126 2326 1892 1621 1673 1440 1457 1967 2350 2945 2743 2891 2777 2587 2284 1667 1139
1101 1042 949 859 604 352 313 310 207 82 421 794 1359 1621 1702 2008 2083 2059 2099 1693 1900 1977 1659 1908 2729 2744 3023 2998 2953 2796 2660 2003 1711
1559 1251 1018 1083 906 703 510 364 311 306 438 675 1193 1792 1985 2070 1998 1960 1744 1879 1794 2110 2154 1983 2616 2943 3077 3103 3018 2885 2743 2399 1749
1624 1654 1556 1332 1211 1011 862 680 525 667 846 968 1148 1704 1815 1759 1928 1830 1681 1577 1867 1901 2302 2440 2015 2812 3243 3385 3055 2957 2798 2626 2103
1880 1649 1807 1874 1602 1356 1266 1292 1357 1238 1011 1092 1326 1571 1732 1768 1789 1819 1588 1522 1703 1937 2255 2684 2648 2697 3256 3391 3149 2964 2827 2304 2049
3744 2446 1892 1949 1930 1860 1886 1746 1575 1367 1252 1522 1528 1963 2079 2081 2000 1906 1907 1925 1916 2100 2486 2650 2981 3080 3186 3179 3082 2846 2906 2104 1248
2948 2941 2914 2692 1984 1847 1929 2086 2177 2110 2119 2022 2072 2291 2319 2433 2791 2500 2488 2377 2575 2783 2728 2953 3198 3120 3245 3068 2914 2482 1901 1082 253
2056 1762 1825 1720 1564 1377 1903 2777 3072 2209 2162 2310 2439 2435 2486 2736 2982 3096 3084 3066 3099 2935 3007 3059 3032 3152 3290 3327 1715 1513 896 227 0
1322 1140 872 551 409 5 3 233 755 1157 902 2855 2460 2518 2724 2912 3054 3208 3457 3458 3353 3389 3445 3454 3514 3452 3394 2347 1167 647 108 0 0
1088 971 506 458 269 132 0 6 0 0 0 242 502 75 1922 2609 3197 3334 3418 3551 3623 3596 3573 3586 3622 3599 2165 998 800 199 0 0 4
930 736 664 597 465 419 361 248 38 33 0 0 292 130 229 1725 3273 3309 3389 3441 3565 3625 3527 3344 3007 2348 1830 1326 932 0 0 0 0
1153 1068 806 599 334 279 220 6 9 64 78 6 58 908 554 1571 1086 3571 3636 3408 3502 3171 3178 2997 2713 1906 1397 997 713 74 0 0 5
935 1002 785 785 675 561 161 82 0 0 0 0 0 47 1586 1739 1969 2298 2801 3037 3156 2726 2686 2384 1860 1368 987 774 490 86 0 0 0
525 531 513 493 532 738 521 163 295 174 13 0 0 378 301 1275 1760 1783 2034 2020 1655 1293 1181 1217 1027 862 787 688 494 609 18 0 0
526 556 567 593 715 924 567 369 391 353 467 209 1711 1918 1837 1630 1896 1737 1778 1784 1401 1113 882 757 637 563 558 531 561 592 185 9 0
783 771 726 628 895 1032 1013 795 931 946 1107 2080 2055 1780 1742 1650 1820 1748 1681 1380 809 1267 608 774 775 674 639 492 376 189 74 25 27
458 1106 1306 1015 1141 1223 1302 1236 1235 1067 1439 1023 930 1609 1768 1736 1588 1616 1239 1122 651 0 2 0 0 40 461 608 241 195 145 60 15
1158 1128 1383 1431 1180 1610 1552 1362 1011 45 82 351 1644 1537 1788 1335 1116 1008 1067 1029 973 977 0 0 0 0 0 1 12 0 0 0 0
CIN
-31 -43 -105 -163 -95 -56 -91 -93 -56 -22 -12 -40 -56 -64 -58 -48 -41 -35 -36 -30 -3 -3 -2 -2 -11 -18 -1 -1 -6 -35 -24 -8 -43
-29 -42 -67 -131 -114 -103 -94 -98 -56 -36 -17 -38 -50 -56 -65 -66 -49 -45 -45 -24 -25 -11 -4 -2 -11 -8 -10 -1 0 -7 -6 -2 -91
-6 -20 -53 -88 -85 -103 -79 -96 -77 -66 -29 -23 -37 -36 -61 -65 -67 -61 -51 -47 -50 -28 -7 -7 -1 -5 -7 -1 -1 -1 -6 -2 -62
-3 -15 -27 -50 -65 -70 -72 -56 -47 -56 -34 -17 -30 -38 -43 -61 -65 -62 -62 -71 -61 -56 -44 -22 -15 -13 -5 -1 -1 0 -2 -9 -22
-14 -3 -5 -9 -31 -57 -48 -59 -48 -35 -13 -16 -25 -46 -62 -69 -67 -62 -54 -60 -64 -60 -56 -51 -26 -24 -9 -3 -1 -1 -2 -6 -3
-33 -33 -8 -4 -3 -5 -51 -45 -53 -58 -39 -40 -41 -60 -73 -75 -74 -64 -64 -53 -56 -70 -63 -56 -53 -31 -14 -6 -1 -1 -2 -1 -1
-45 -51 -40 -20 -3 -2 -13 -41 -19 -55 -61 -57 -59 -59 -64 -55 -73 -74 -51 -44 -47 -47 -64 -63 -56 -40 -24 -7 -1 -1 -3 -6 -2
-7 -25 -22 -28 -29 -4 -35 -73 -68 -76 -72 -68 -58 -84 -68 -66 -75 -72 -76 -60 -61 -65 -47 -65 -58 -43 -16 -10 -1 -1 -1 -4 -8
-30 -51 -62 -44 -71 -63 -59 -81 -92 -83 -96 -85 -81 -66 -83 -81 -84 -105 -102 -108 -87 -76 -75 -49 -34 -44 -16 -11 -8 -32 -56 -128 -195
-81 -131 -146 -192 -264 -310 -198 -75 -17 -35 -41 -48 -63 -68 -69 -70 -84 -97 -116 -115 -108 -108 -97 -89 -101 -94 -54 -28 -227 -210 -217 -290 0
-136 -194 -257 -360 -415 -300 -50 -241 -371 -238 -284 -32 -13 -18 -36 -51 -65 -73 -67 -60 -70 -74 -62 -57 -52 -47 -33 -153 -297 -367 -470 0 0
-114 -149 -293 -321 -366 -427 -103 -526 0 0 0 -442 -345 -93 -68 -16 -16 -33 -44 -50 -51 -55 -56 -52 -43 -34 -168 -186 -320 -486 -40 0 -103
-84 -108 -156 -179 -216 -273 -291 -378 -404 -317 0 0 -447 -472 -307 -67 -2 -10 -14 -23 -20 -32 -14 -17 -40 -182 -199 -169 -288 0 0 0 0
-40 -29 -52 -111 -169 -226 -321 -149 -282 -366 -312 -191 -239 -96 -57 -19 -50 -2 -1 -5 -12 -40 -23 -16 -6 -156 -242 -301 -304 -369 0 0 -49
-41 -27 -43 -52 -74 -119 -236 -369 0 0 0 0 0 -104 -90 -64 -24 -26 -69 -2 -19 -65 -48 -71 -112 -173 -232 -274 -303 -461 0 0 0
-32 -36 -46 -66 -82 -72 -119 -219 -196 -173 -210 0 0 -93 -216 -66 -31 -107 -55 -45 -134 -174 -195 -178 -199 -220 -214 -204 -213 -165 -492 0 0
-3 -2 -8 -29 -67 -48 -91 -102 -85 -83 -89 -132 -35 -10 -57 -11 -9 -36 -55 -69 -121 -141 -175 -195 -214 -214 -176 -151 -116 -106 -210 -343 0
-3 -6 -28 -38 -38 -48 -53 -68 -63 -59 -68 -15 -6 -12 -13 -24 -15 -34 -37 -70 -151 -67 -177 -139 -108 -120 -122 -143 -151 -192 -233 -258 -99
-20 -16 -23 -42 -52 -57 -62 -71 -47 -60 -37 -42 -40 -14 -3 -2 -2 -2 -22 -52 -127 0 -42 0 0 -286 -144 -86 -169 -155 -153 -199 -229
-16 -19 -12 -23 -45 -49 -76 -91 -71 -176 -202 -131 -40 -8 -5 -2 -7 -2 -3 -2 -4 -25 0 0 0 0 0 -9 -3 0 0 0 0
Wind_Speed
19 20 26 29 24 23 18 20 16 14 13 17 15 15 14 14 16 18 20 15 22 9 16 11 11 13 14 15 15 15 15 12 13
19 22 26 25 23 22 18 17 14 13 12 16 16 15 12 15 18 23 17 8 7 18 11 10 10 12 13 13 13 13 16 16 15
16 22 23 19 19 21 18 17 15 14 14 16 18 19 18 22 22 19 20 7 9 7 7 7 8 10 10 11 11 12 12 14 14
13 16 21 19 19 18 17 17 16 14 14 17 18 21 18 21 21 19 19 16 9 8 10 5 7 6 7 8 8 8 8 9 12
16 11 15 18 18 19 18 16 14 13 12 12 11 18 16 15 19 14 11 11 9 5 6 8 6 6 6 5 5 5 5 6 8
18 18 6 11 13 14 15 17 15 9 5 6 8 8 12 17 10 6 7 6 6 6 7 8 8 5 4 4 4 3 3 2 5
19 16 12 7 4 5 6 9 5 7 11 14 12 11 11 9 7 5 5 4 4 2 3 4 4 6 4 4 4 1 3 5 9
19 17 14 12 13 7 8 6 1 2 7 13 15 13 13 9 7 8 6 15 12 8 4 4 4 6 5 4 3 2 3 6 14
18 17 16 14 13 13 11 10 10 8 7 10 5 4 22 13 7 6 5 5 7 5 5 5 4 5 3 3 3 1 3 6 9
17 16 15 14 14 14 15 10 10 11 13 19 24 28 32 33 34 33 17 10 7 6 6 5 7 7 5 4 4 1 0 1 8
16 15 14 15 15 16 15 13 11 15 20 17 19 25 30 31 32 32 30 25 15 10 8 6 6 6 6 5 4 2 2 4 7
15 15 14 15 16 16 15 15 15 14 22 19 22 26 28 30 33 32 27 19 15 12 9 8 8 8 10 11 3 5 6 7 23
14 15 16 20 22 23 25 25 25 19 21 22 24 22 29 34 27 31 30 26 21 19 16 15 12 10 10 7 4 5 4 6 18
19 21 23 24 26 29 30 31 32 29 21 17 19 19 19 38 27 21 17 20 20 16 17 16 10 11 8 6 5 6 5 4 14
21 23 24 25 29 31 28 27 28 26 22 20 17 24 29 26 26 25 21 22 15 15 15 15 14 12 11 9 7 7 6 5 7
20 22 25 29 30 30 25 25 24 27 23 21 20 19 24 27 27 21 16 17 16 16 16 15 14 12 12 12 10 10 8 6 11
21 22 23 25 25 24 23 21 22 25 30 24 21 22 18 21 22 20 18 17 16 16 16 16 15 13 13 12 12 14 13 10 10
21 22 23 23 23 22 22 23 26 25 24 20 17 16 20 21 21 19 17 18 18 16 16 16 15 14 13 11 11 10 8 6 5
22 23 23 23 23 22 20 19 19 20 16 14 16 20 22 16 17 15 14 14 14 17 16 17 18 18 16 13 15 12 5 4 4
23 24 22 21 23 21 18 14 13 17 17 15 16 23 21 17 17 15 15 14 14 14 16 17 16 18 18 18 19 14 11 9 6
Wind_Direction
145 148 160 177 162 161 155 160 155 152 146 155 152 153 153 151 154 156 165 145 212 89 281 20 41 86 99 85 85 77 65 76 76
139 152 156 166 161 160 153 155 155 154 149 156 156 157 151 156 160 176 157 118 104 243 319 347 53 90 103 99 82 86 75 89 97
120 153 157 151 155 158 153 154 155 155 153 158 163 166 161 171 172 167 172 130 137 115 101 103 53 90 103 107 98 92 89 70 74
95 131 157 157 159 158 156 158 159 158 158 161 162 167 162 169 172 168 170 166 150 148 150 113 117 107 100 108 99 99 86 74 46
292 98 138 156 156 163 163 162 162 161 161 163 163 168 165 162 170 161 158 160 159 150 152 154 143 136 130 121 110 98 90 78 48
308 293 27 132 150 155 161 167 165 163 177 166 169 171 169 171 165 170 171 170 164 162 161 163 162 151 151 141 142 117 65 57 17
316 315 312 337 79 128 143 160 155 160 170 174 170 173 176 181 190 238 212 252 260 216 183 175 176 175 171 167 158 117 350 353 353
318 322 317 305 297 323 309 310 272 221 171 172 174 177 178 190 201 190 210 280 279 273 261 218 196 187 189 188 193 328 344 13 4
320 316 319 321 311 301 297 292 293 297 288 285 271 212 188 183 197 210 236 237 267 262 241 263 235 217 228 233 275 300 36 30 12
319 325 321 314 314 317 295 316 323 319 313 292 279 269 262 257 251 255 278 279 273 264 256 253 222 224 238 248 306 271 212 355 347
318 319 324 322 318 326 331 301 334 348 340 326 309 281 272 268 264 264 270 278 287 286 281 260 251 254 251 265 278 262 218 250 352
322 316 318 317 320 324 329 331 336 358 332 335 332 308 281 273 269 269 277 287 289 289 286 282 277 283 285 270 263 228 219 320 344
321 315 309 304 304 302 302 309 317 320 297 334 330 318 282 278 272 270 273 280 286 290 291 290 281 292 292 303 290 212 235 333 352
310 302 299 299 301 299 303 304 302 307 306 292 330 325 287 283 296 284 295 292 292 302 304 310 327 313 302 294 271 234 276 295 348
313 306 303 298 296 296 304 310 312 313 317 325 314 288 300 312 299 290 305 291 315 318 315 315 315 312 307 301 298 299 255 258 329
323 316 308 300 296 297 299 306 317 316 322 318 309 308 296 306 299 302 320 317 324 325 327 325 322 320 314 309 301 307 292 279 297
327 322 318 310 304 300 306 308 308 313 311 310 313 297 297 291 295 298 307 318 332 331 330 329 330 327 322 318 316 314 312 307 306
325 327 320 313 312 310 305 304 304 311 315 320 320 310 287 288 295 306 315 323 328 336 342 343 340 336 335 332 326 318 311 316 304
307 318 317 314 311 305 308 312 310 314 325 331 319 309 284 312 314 317 335 347 349 346 352 349 345 343 345 350 343 342 329 312 319
303 272 316 319 306 317 322 324 327 333 317 334 338 295 313 317 315 325 330 336 337 341 346 351 352 349 345 344 339 342 338 331 326